星链-31756 (STARLINK-31756)

导读

STARLINK-31756是美国SpaceX公司星链(Starlink)卫星互联网星座的成员,于2024年10月15日发射入轨。该卫星运行在近地轨道,属于星链星座的扩展部署卫星,承担全球高速低延迟互联网接入服务,重点为偏远地区、海洋和空中区域提供网络覆盖,是星链构建全球低轨卫星通信网络的重要组成部分,助力提升全球互联网覆盖范围与服务质量。

基本信息
目录编号:
61517
目录名称:
STARLINK-31756
国际标识:
2024-183J
轨道中心:
EARTH
卫星名称:
星链-31756
卫星全名:
星链-31756 (STARLINK-31756)
卫星状态:
在轨 (已飞行697 天)
发射日期:
2024-10-15 UTC
国别 :
美国 (US)
星等 :
--
该卫星已列入 空间交会检测服务 Space Conjunction Data Service (SCDS) ,当前飞行风险评估等级: 无高风险
轨道信息
数据来源 国际轨道数据
星历时间: 2026-09-11T19:23:15+0800
13小时前
查看轨道信息
半长轴: 6840.919km
偏心率: 0.0001023
轨道倾角: 53.161°
近地点辐角 99.127°
升交点赤经 357.550°
平近点角 260.985°
近地点: 462.082km
远地点: 463.482km
周期: 93.849分钟
每日圈数: 15.343738
详细信息
固有亮度:
5
最大亮度:
2.5
卫星平台:
Starlink V1.0
覆盖范围:
全球
运营商:
太空探索技术公司
运营商所在国:
美国
制造商(研发单位):
太空探索技术公司
制造商所在国:
美国
使用方式:
暂无
卫星简介
Starlink 计划是 SpaceX 推出的全球卫星互联网项目,通过发射低轨道卫星,为全球尤其是偏远地区提供高速、低延迟的互联网服务。自 2019 年起,Starlink 已部署数千颗卫星,旨在缩小全球数字鸿沟,推动互联网普及。该项目还为军事、航空等行业提供通信支持,带来广泛经济效益。
2D轨道图
3D轨道图
轨道高度分析图
轨道倾角分析图
轨道综合分析图
查看轨道综合分析图
交会数据列表
事件ID 空间交会对象 最接近时刻(TCA) 交会距离 交会风险概率(CRP) 交会风险指数(CRI) 操作
CDM_260913-132806-151706-926022
2026-09-13T
13:28:42+0000
0.943 km
远距离
2.877024E-5 中风险 0.64
CDM_260914-044506-151706-639521
2026-09-14T
04:45:33+0000
0.993 km
远距离
1.69841E-5 中风险 0.6
CDM_260913-135406-151706-372321
2026-09-13T
13:54:55+0000
1.327 km
极远距离
6.478707E-6 低风险 0.51
CDM_260912-195606-151706-372321
2026-09-12T
19:56:18+0000
1.460 km
极远距离
4.712732E-6 低风险 0.48
CDM_260913-150206-151706-926022
2026-09-13T
15:02:30+0000
1.900 km
极远距离
2.877227E-6 低风险 0.44
CDM_260913-122106-151706-372321
2026-09-13T
12:21:08+0000
1.799 km
极远距离
2.512442E-6 低风险 0.43
CDM_260914-083404-160306-151721
LAPAN A3 (41603)
2026-09-14T
08:34:39+0000
2.059 km
极远距离
2.265402E-6 低风险 0.42
CDM_260914-031106-151706-639521
2026-09-14T
03:11:45+0000
2.015 km
极远距离
1.814382E-6 低风险 0.4
CDM_260912-213006-151706-372321
2026-09-12T
21:30:05+0000
2.195 km
极远距离
1.538897E-6 低风险 0.39
CDM_260913-115406-151706-926022
2026-09-13T
11:54:55+0000
2.691 km
极远距离
1.378863E-6 低风险 0.38
与全量物体交会距离演化趋势
与全量物体交会风险概率演化趋势